This demonstration page uses our WeatherBlox Daily Observations layout. Learn more.

39.92423, -83.80882

Hourly Observations for December 24, 2019

Temp ( °F °C ) Dew Point ( °F °C ) Humidity (%) Winds ( mph kmh ) Pressure ( in mb ) Visibility ( mi km ) Precip ( " mm )
12:18 am 00:18 Clear with Mist and Fog 32 0 32 0 100 100 Calm 30.14 1021 1.5 2.41401 0 0
12:20 am 00:20 Clear with Mist and Fog 32 0 32 0 100 100 Calm 30.14 1021 3 4.82802 0 0
12:24 am 00:24 Mostly Clear with Mist and Fog 32 0 32 0 100 100 Calm 30.14 1021 1.25 2.011675 0 0
12:26 am 00:26 Mostly Cloudy with Fog 32 0 32 0 100 100 Calm 30.14 1021 0.5 0.80467 0 0
12:35 am 00:35 Mostly Cloudy with Freezing Fog 30 -1 30 -1 100 100 NNE 5 7 30.15 1021 0.25 0.402335 0 0
12:56 am 00:56 Cloudy with Fog 32 0 32 0 100 100 Calm 30.11 1020 0.25 0.402335 0 0
1:56 am 01:56 Mostly Cloudy with Freezing Fog 30 -1.1 30 -1.1 100 100 N 5 7 30.11 1020 0.25 0.402335 0 0
2:05 am 02:05 Mostly Cloudy with Freezing Fog 28 -2 28 -2 100 100 N 3 6 30.15 1021 0.5 0.80467 0 0
2:46 am 02:46 Mostly Cloudy with Freezing Fog 28 -2 28 -2 100 100 Calm 30.15 1021 0.25 0.402335 0 0
2:53 am 02:53 Clear with Freezing Fog 28 -2 28 -2 100 100 Calm 30.15 1021 0.25 0.402335 0 0
2:56 am 02:56 Clear with Freezing Fog 29 -1.7 29 -1.7 100 100 Calm 30.11 1020 0.25 0.402335 0 0
3:02 am 03:02 Clear with Mist and Fog 28 -2 28 -2 100 100 Calm 30.15 1021 0.75 1.207005 0 0
3:04 am 03:04 Clear with Mist and Fog 28 -2 28 -2 100 100 Calm 30.15 1021 1.5 2.41401 0 0
3:07 am 03:07 Clear with Mist and Fog 28 -2 28 -2 100 100 Calm 30.15 1021 0.75 1.207005 0 0
3:10 am 03:10 Clear with Freezing Fog 28 -2 28 -2 100 100 Calm 30.15 1021 0.25 0.402335 0 0
3:26 am 03:26 Mostly Cloudy with Freezing Fog 28 -2 28 -2 100 100 NNW 5 7 30.16 1021 0.25 0.402335 0 0
3:37 am 03:37 Mostly Cloudy with Freezing Fog 30 -1 30 -1 100 100 N 3 6 30.16 1021 0.5 0.80467 0 0
3:56 am 03:56 Mostly Cloudy with Freezing Fog 31 -0.6 31 -0.6 100 100 Calm 30.12 1020 0.25 0.402335 0 0
4:22 am 04:22 Mostly Cloudy with Freezing Fog 30 -1 30 -1 100 100 Calm 30.16 1021 0.5 0.80467 0 0
4:34 am 04:34 Mostly Cloudy with Freezing Fog 30 -1 30 -1 100 100 Calm 30.16 1021 0.25 0.402335 0 0
4:47 am 04:47 Mostly Cloudy with Freezing Fog 27 -3 27 -3 100 100 Calm 30.17 1022 0.25 0.402335 0 0
4:56 am 04:56 Mostly Cloudy with Freezing Fog 27 -2.8 27 -2.8 100 100 Calm 30.12 1020 0.25 0.402335 0 0
5:56 am 05:56 Cloudy with Freezing Fog 26 -3.3 26 -3.3 100 100 Calm 30.14 1021 0.5 0.80467 0 0
6:13 am 06:13 Cloudy with Freezing Fog 27 -3 27 -3 100 100 Calm 30.17 1022 0.25 0.402335 0 0
6:56 am 06:56 Cloudy with Freezing Fog 24 -4.4 24 -4.4 100 100 Calm 30.15 1021 0.25 0.402335 0 0
7:56 am 07:56 Cloudy with Freezing Fog 24 -4.4 24 -4.4 100 100 Calm 30.15 1021 N/A 0 0
8:16 am 08:16 Cloudy with Freezing Fog 25 -4 25 -4 100 100 Calm 30.19 1022 N/A 0 0
8:56 am 08:56 Cloudy with Freezing Fog 26 -3.3 26 -3.3 100 100 Calm 30.17 1022 0.25 0.402335 0 0
9:05 am 09:05 Cloudy with Mist and Fog 27 -3 27 -3 100 100 ESE 3 6 30.2 1023 0.75 1.207005 0 0
9:07 am 09:07 Cloudy with Mist and Fog 28 -2 28 -2 100 100 ESE 3 6 30.19 1022 1.25 2.011675 0 0
9:23 am 09:23 Mostly Cloudy with Mist and Fog 30 -1 30 -1 100 100 SE 3 6 30.18 1022 2.5 4.02335 0 0
9:27 am 09:27 Partly Cloudy with Mist and Fog 30 -1 30 -1 100 100 SE 3 6 30.18 1022 3 4.82802 0 0
9:51 am 09:51 Sunny with Mist and Fog 36 2 36 2 100 100 Calm 30.18 1022 2.5 4.02335 0 0
9:56 am 09:56 Sunny with Mist and Fog 37 2.8 37 2.8 100 100 Calm 30.17 1022 2.5 4.02335 0 0
10:29 am 10:29 Sunny with Mist and Fog 39 4 39 4 100 100 Calm 30.18 1022 3 4.82802 0 0
10:56 am 10:56 Sunny with Mist and Fog 42 5.6 42 5.6 100 100 SE 5 7 30.17 1022 4 6.43736 0 0
11:56 am 11:56 Sunny 46 7.8 45 7.2 96 96 SSE 6 9 30.14 1021 8 12.87472 0 0
12:56 pm 12:56 Sunny 52 11.1 42 5.6 69 69 SW 6 9 30.12 1020 10 16.0934 0 0
1:56 pm 13:56 Sunny 54 12.2 40 4.4 59 59 W 5 7 30.11 1020 10 16.0934 0 0
2:56 pm 14:56 Sunny 54 12.2 39 3.9 57 57 WSW 5 7 30.1 1019 10 16.0934 0 0
3:56 pm 15:56 Sunny 54 12.2 41 5 62 62 Calm 30.1 1019 10 16.0934 0 0
4:56 pm 16:56 Sunny 50 10 35 1.7 57 57 NNW 3 6 30.1 1019 10 16.0934 0 0
5:56 pm 17:56 Clear 43 6.1 36 2.2 76 76 E 5 7 30.1 1019 10 16.0934 0 0
6:56 pm 18:56 Clear 42 5.6 36 2.2 79 79 Calm 30.12 1020 10 16.0934 0 0
7:56 pm 19:56 Clear 36 2.2 34 1.1 93 93 Calm 30.13 1020 10 16.0934 0 0
8:56 pm 20:56 Clear 33 0.6 33 0.6 100 100 SE 5 7 30.11 1020 10 16.0934 0 0
9:56 pm 21:56 Clear 32 0 32 0 100 100 ESE 3 6 30.11 1020 10 16.0934 0 0
10:56 pm 22:56 Clear 33 0.6 33 0.6 100 100 SSE 6 9 30.08 1019 9 14.48406 0 0
11:56 pm 23:56 Clear 34 1.1 34 1.1 100 100 S 5 7 30.07 1018 7 11.26538 0 0

Powered by AerisWeather